NIMIQ 5

Last updated on Sun Apr 12 2026 00:02:51 GMT+0000 (Coordinated Universal Time)

1 35873U 09050A 26101.50630399 -.00000255 00000+0 00000+0 0 9996 2 35873 0.0575 79.7932 0002965 307.8124 281.6843 1.00272402 60678
UTC large
Height (km)
Speed (km/s)
/
Latitude / Longitude
Inclination (degrees)
Orbital Period (minutes)
Azimuth
Elevation
Range (km)
Doppler Factor

Next 0 passes for location: London (51.5072 / 0.1276)

Sorry there are no passes over London.
NIMIQ 5